TimePDT,TemperatureF,Dew PointF,Humidity,Sea Level PressureIn,VisibilityMPH,Wind Direction,Wind SpeedMPH,Gust SpeedMPH,PrecipitationIn,Events,Conditions,WindDirDegrees,DateUTC
1:55 AM,44.1,37.9,79,30.08,10.0,Calm,Calm,-,N/A,,Partly Cloudy,0,2011-10-12 08:55:00
2:55 AM,45.0,37.9,76,30.08,10.0,Calm,Calm,-,N/A,,Partly Cloudy,0,2011-10-12 09:55:00
3:55 AM,46.9,37.9,71,30.09,10.0,Calm,Calm,-,N/A,,Mostly Cloudy,0,2011-10-12 10:55:00
4:55 AM,42.1,37.0,82,30.12,10.0,SSE,3.5,-,N/A,,Clear,150,2011-10-12 11:55:00
5:55 AM,44.1,39.0,82,30.14,10.0,Variable,3.5,-,N/A,,Clear,0,2011-10-12 12:55:00
6:55 AM,43.0,37.0,80,30.16,10.0,NNE,3.5,-,N/A,,Clear,20,2011-10-12 13:55:00
8:55 AM,44.1,39.0,82,30.18,10.0,Calm,Calm,-,N/A,,Clear,0,2011-10-12 15:55:00
9:55 AM,45.0,41.0,86,30.19,10.0,Calm,Calm,-,N/A,,Clear,0,2011-10-12 16:55:00
11:55 AM,50.0,42.1,74,30.18,10.0,Calm,Calm,-,N/A,,Clear,0,2011-10-12 18:55:00
12:55 PM,54.0,41.0,62,30.17,10.0,Calm,Calm,-,N/A,,Clear,0,2011-10-12 19:55:00
2:55 PM,59.0,35.1,41,30.14,10.0,Calm,Calm,-,N/A,,Clear,0,2011-10-12 21:55:00
3:55 PM,59.0,37.0,44,30.14,10.0,SSW,3.5,-,N/A,,Clear,210,2011-10-12 22:55:00
4:55 PM,59.0,30.0,33,30.14,10.0,West,9.2,-,N/A,,Clear,260,2011-10-12 23:55:00
5:55 PM,57.9,28.9,33,30.13,10.0,WNW,9.2,-,N/A,,Clear,290,2011-10-13 00:55:00
6:55 PM,54.0,32.0,43,30.14,10.0,NW,8.1,-,N/A,,Clear,310,2011-10-13 01:55:00
7:55 PM,53.1,33.1,47,30.15,10.0,NW,6.9,-,N/A,,Clear,320,2011-10-13 02:55:00
8:55 PM,51.1,35.1,54,30.17,7.0,NNW,6.9,-,N/A,,Clear,340,2011-10-13 03:55:00
9:55 PM,50.0,35.1,57,30.18,10.0,WNW,5.8,-,N/A,,Clear,300,2011-10-13 04:55:00
10:55 PM,48.9,36.0,61,30.19,9.0,NNW,3.5,-,N/A,,Clear,330,2011-10-13 05:55:00
11:55 PM,48.9,36.0,61,30.19,10.0,NW,9.2,-,N/A,,Clear,310,2011-10-13 06:55:00